Location: Celina Division
(33.3022°N, 96.7580°W)
Time: 01:47:27
(UTC+00:00)

NOAA 18 - Pass Details

Date: 11 April 2023
Orbit: 838 x 860 km, 98.9° (Epoch: 07 June)

Event Time Altitude Azimuth Distance (km) Brightness Sun altitude
Exits shadow 03:44:50 20° 23° (NNE) 1,909 7.1 -33.2°
Drops below altitude 10° 03:46:44 10° 9° (N) 2,500 7.9 -33.5°
Sets 03:49:21 0° 359° (N) 3,439 8.9 -33.9°
